FW8756 Weather Reports


Display with metric or nautical units.
time (UTC)temp
F
wind
direction
speed
MPH
gust
MPH
rain 1hr
in
rain 24hr
in
rain mn
in
humidity
%
barometer
mb
20260831163109 95 229 1.0 2.0 0.00 0.00 0.00 58 1015.9
20260831162608 94 155 1.0 2.0 0.00 0.00 0.00 59 1016.3
20260831162106 95 275 5.0 5.0 0.00 0.00 0.00 58 1016.1
20260831161602 92 144 4.0 5.0 0.00 0.00 0.00 61 1016.0
20260831161059 92 156 0.0 0.0 0.00 0.00 0.00 61 1016.1
20260831160557 91 149 1.0 1.0 0.00 0.00 0.00 63 1016.2
20260831160053 91 151 2.0 2.0 0.00 0.00 0.00 64 1016.4
20260831155547 91 234 3.0 3.0 0.00 0.00 0.00 65 1016.2
20260831155043 90 212 2.0 2.0 0.00 0.00 0.00 66 1016.1
20260831154539 91 220 2.0 2.0 0.00 0.00 0.00 65 1016.4
20260831154038 91 198 2.0 2.0 0.00 0.00 0.00 68 1016.2
20260831153532 89 173 3.0 3.0 0.00 0.00 0.00 70 1016.0
20260831153029 89 208 4.0 5.0 0.00 0.00 0.00 70 1016.4
20260831152524 88 172 2.0 2.0 0.00 0.00 0.00 71 1015.8
20260831152020 89 172 0.0 1.0 0.00 0.00 0.00 71 1016.0
20260831151519 88 149 0.0 0.0 0.00 0.00 0.00 72 1016.1
20260831151019 87 161 0.0 0.0 0.00 0.00 0.00 74 1016.0
20260831150514 86 207 2.0 2.0 0.00 0.00 0.00 76 1016.0
20260831150011 85 219 3.0 5.0 0.00 0.00 0.00 79 1016.1
20260831145505 85 143 0.0 0.0 0.00 0.00 0.00 79 1016.0
20260831145001 87 209 0.0 0.0 0.00 0.00 0.00 78 1016.0
20260831144456 85 154 0.0 0.0 0.00 0.00 0.00 80 1016.0
20260831143951 86 151 0.0 0.0 0.00 0.00 0.00 79 1015.8
20260831143440 85 166 0.0 0.0 0.00 0.00 0.00 79 1015.9
20260831142935 86 158 0.0 0.0 0.00 0.00 0.00 78 1015.8
20260831142427 85 157 0.0 0.0 0.00 0.00 0.00 80 1015.8
20260831141926 85 107 0.0 0.0 0.00 0.00 0.00 80 1015.7
20260831141420 85 164 0.0 0.0 0.00 0.00 0.00 81 1015.7
20260831140915 84 147 0.0 0.0 0.00 0.00 0.00 82 1015.8
20260831140410 84 162 1.0 2.0 0.00 0.00 0.00 82 1015.7
20260831135909 85 160 0.0 0.0 0.00 0.00 0.00 80 1015.6
20260831135408 85 150 0.0 0.0 0.00 0.00 0.00 81 1015.7
20260831134904 84 150 0.0 0.0 0.00 0.00 0.00 82 1015.4
20260831134400 83 202 0.0 1.0 0.00 0.00 0.00 83 1015.5
20260831133859 84 268 0.0 2.0 0.00 0.00 0.00 82 1015.4
20260831133354 84 151 0.0 0.0 0.00 0.00 0.00 82 1015.6
20260831132849 83 150 0.0 0.0 0.00 0.00 0.00 83 1015.6
20260831132344 83 148 0.0 0.0 0.00 0.00 0.00 84 1015.2
20260831131844 82 192 0.0 0.0 0.00 0.00 0.00 85 1015.3
20260831131340 81 150 0.0 0.0 0.00 0.00 0.00 86 1015.3
20260831130835 81 149 1.0 1.0 0.00 0.00 0.00 88 1015.4
20260831130331 80 148 0.0 0.0 0.00 0.00 0.00 88 1015.5
20260831125829 80 147 0.0 0.0 0.00 0.00 0.00 89 1015.3
20260831125325 79 148 0.0 0.0 0.00 0.00 0.00 90 1015.3
20260831124825 78 143 0.0 0.0 0.00 0.00 0.00 90 1015.5
20260831124321 78 147 0.0 0.0 0.00 0.00 0.00 90 1015.1
20260831123821 78 150 0.0 0.0 0.00 0.00 0.00 90 1015.1
20260831123320 78 151 0.0 0.0 0.00 0.00 0.00 89 1015.0
20260831122815 78 149 0.0 0.0 0.00 0.00 0.00 89 1014.8
20260831122311 78 148 0.0 0.0 0.00 0.00 0.00 89 1014.7
20260831121810 78 151 0.0 0.0 0.00 0.00 0.00 89 1014.7
20260831121307 78 146 0.0 0.0 0.00 0.00 0.00 89 1014.8
20260831120802 78 150 0.0 0.0 0.00 0.00 0.00 89 1014.8
20260831120256 78 149 0.0 0.0 0.00 0.00 0.00 89 1014.7
20260831115751 78 145 0.0 0.0 0.00 0.00 0.00 89 1014.7
20260831115248 78 148 0.0 0.0 0.00 0.00 0.00 88 1014.5
20260831114747 78 143 0.0 0.0 0.00 0.00 0.00 88 1014.5
20260831114246 78 145 0.0 0.0 0.00 0.00 0.00 88 1014.6
20260831113742 78 140 0.0 0.0 0.00 0.00 0.00 88 1014.3
20260831113236 79 149 0.0 0.0 0.00 0.00 0.00 88 1014.5
20260831112735 79 160 0.0 0.0 0.00 0.00 0.00 88 1014.5
20260831112231 79 153 0.0 0.0 0.00 0.00 0.00 88 1014.3
20260831111727 79 179 1.0 1.0 0.00 0.00 0.00 88 1014.3
20260831111223 79 151 0.0 0.0 0.00 0.00 0.00 88 1014.5
20260831110718 79 155 0.0 0.0 0.00 0.00 0.00 88 1014.7
20260831110214 79 156 0.0 0.0 0.00 0.00 0.00 88 1014.5
20260831105712 80 176 1.0 1.0 0.00 0.00 0.00 88 1014.1
20260831105208 79 140 0.0 0.0 0.00 0.00 0.00 87 1014.5
20260831104702 79 163 0.0 1.0 0.00 0.00 0.00 87 1014.3
20260831104159 79 150 3.0 3.0 0.00 0.00 0.00 87 1014.4
20260831103654 79 146 0.0 0.0 0.00 0.00 0.00 88 1014.4
20260831103149 79 153 0.0 0.0 0.00 0.00 0.00 87 1014.5
20260831102649 79 158 0.0 0.0 0.00 0.00 0.00 87 1014.3
20260831102144 79 152 0.0 0.0 0.00 0.00 0.00 87 1014.3
20260831101639 79 150 0.0 0.0 0.00 0.00 0.00 87 1014.5
20260831101135 79 153 0.0 0.0 0.00 0.00 0.00 87 1014.3
20260831100631 79 152 0.0 0.0 0.00 0.00 0.00 87 1014.5
20260831100127 79 159 0.0 0.0 0.00 0.00 0.00 87 1014.4
20260831095625 79 163 0.0 0.0 0.00 0.00 0.00 87 1014.4
20260831095120 79 154 0.0 0.0 0.00 0.00 0.00 87 1014.4
20260831094615 79 154 0.0 0.0 0.00 0.00 0.00 87 1014.4
20260831094111 79 150 0.0 0.0 0.00 0.00 0.00 87 1014.2
20260831093607 79 157 0.0 0.0 0.00 0.00 0.00 87 1014.3
20260831093103 79 157 0.0 0.0 0.00 0.00 0.00 87 1014.4
20260831092558 79 151 0.0 0.0 0.00 0.00 0.00 87 1014.5
20260831092054 79 145 0.0 0.0 0.00 0.00 0.00 87 1014.2
20260831091553 79 178 0.0 0.0 0.00 0.00 0.00 87 1014.2
20260831091049 79 151 0.0 0.0 0.00 0.00 0.00 86 1014.1
20260831090544 79 150 0.0 0.0 0.00 0.00 0.00 86 1014.2
20260831090040 79 150 0.0 0.0 0.00 0.00 0.00 86 1014.1
20260831085535 79 151 0.0 0.0 0.00 0.00 0.00 86 1014.3
20260831085030 80 150 0.0 0.0 0.00 0.00 0.00 85 1014.4
20260831084526 80 154 0.0 0.0 0.00 0.00 0.00 85 1014.2
20260831084023 80 151 0.0 0.0 0.00 0.00 0.00 85 1014.3
20260831083518 80 156 0.0 0.0 0.00 0.00 0.00 85 1014.5
20260831083017 80 153 0.0 0.0 0.00 0.00 0.00 85 1014.4
20260831082512 81 151 0.0 0.0 0.00 0.00 0.00 84 1014.4
20260831082007 80 153 0.0 0.0 0.00 0.00 0.00 84 1014.4
20260831081503 81 154 0.0 0.0 0.00 0.00 0.00 84 1014.2
20260831080958 81 152 0.0 0.0 0.00 0.00 0.00 84 1014.5
20260831080452 81 152 0.0 0.0 0.00 0.00 0.00 84 1014.3
20260831075948 81 148 0.0 0.0 0.00 0.00 0.00 83 1014.4
20260831075444 81 155 0.0 0.0 0.00 0.00 0.00 83 1014.4
20260831074939 81 171 0.0 0.0 0.00 0.00 0.00 83 1014.4
20260831074438 81 158 0.0 0.0 0.00 0.00 0.00 82 1014.2
20260831073933 82 160 0.0 0.0 0.00 0.00 0.00 82 1014.4
20260831073432 82 161 1.0 1.0 0.00 0.00 0.00 82 1014.3
20260831072927 82 173 1.0 1.0 0.00 0.00 0.00 82 1014.3
20260831072423 82 166 1.0 1.0 0.00 0.00 0.00 82 1014.4
20260831071919 82 168 1.0 1.0 0.00 0.00 0.00 81 1014.4
20260831071418 82 214 2.0 2.0 0.00 0.00 0.00 81 1014.4
20260831070918 82 189 2.0 2.0 0.00 0.00 0.00 81 1014.3
20260831070418 82 181 2.0 2.0 0.00 0.00 0.00 80 1014.4
20260831065917 82 119 0.0 1.0 0.00 0.00 0.00 80 1014.5
20260831065414 82 163 1.0 1.0 0.00 0.00 0.00 80 1014.5
20260831064910 82 171 2.0 2.0 0.00 0.00 0.00 80 1014.3
20260831064405 82 164 0.0 0.0 0.00 0.00 0.00 80 1014.6
20260831063900 82 152 0.0 0.0 0.00 0.00 0.00 79 1014.3
20260831063355 82 152 0.0 0.0 0.00 0.00 0.00 79 1014.5
20260831062850 83 158 0.0 0.0 0.00 0.00 0.00 79 1014.6
20260831062345 83 175 0.0 0.0 0.00 0.00 0.00 78 1014.6
20260831061844 83 144 0.0 0.0 0.00 0.00 0.00 78 1014.7
20260831061343 83 176 0.0 0.0 0.00 0.00 0.00 77 1014.7
20260831060840 83 185 0.0 0.0 0.00 0.00 0.00 77 1014.6
20260831060339 83 268 1.0 2.0 0.00 0.00 0.00 77 1014.6
20260831055839 83 159 0.0 0.0 0.00 0.00 0.00 76 1014.7
20260831055334 83 147 0.0 0.0 0.00 0.00 0.00 76 1014.4
20260831054830 83 170 0.0 0.0 0.00 0.00 0.00 76 1014.4
20260831054325 83 152 0.0 0.0 0.00 0.00 0.00 76 1014.4
20260831053824 83 156 0.0 0.0 0.00 0.00 0.00 76 1014.5
20260831053323 83 152 0.0 0.0 0.00 0.00 0.00 75 1014.3
20260831052817 83 150 0.0 0.0 0.00 0.00 0.00 75 1014.3
20260831052317 83 156 0.0 0.0 0.00 0.00 0.00 74 1014.4
20260831051815 83 150 0.0 0.0 0.00 0.00 0.00 74 1014.4
20260831051314 84 154 0.0 0.0 0.00 0.00 0.00 74 1014.4
20260831050809 84 152 0.0 0.0 0.00 0.00 0.00 74 1014.4
20260831050308 84 151 0.0 0.0 0.00 0.00 0.00 73 1014.4
20260831045803 84 150 0.0 0.0 0.00 0.00 0.00 73 1014.4
20260831045305 84 151 0.0 0.0 0.00 0.00 0.00 72 1014.3
20260831044757 84 157 0.0 0.0 0.00 0.00 0.00 72 1014.2
20260831044252 84 143 0.0 0.0 0.00 0.00 0.00 72 1014.4
20260831043748 84 153 0.0 0.0 0.00 0.00 0.00 71 1014.2
20260831043243 85 150 0.0 0.0 0.00 0.00 0.00 71 1014.2
20260831042742 85 151 0.0 0.0 0.00 0.00 0.00 71 1014.2
20260831042237 85 154 0.0 0.0 0.00 0.00 0.00 70 1014.3
20260831041732 85 151 0.0 0.0 0.00 0.00 0.00 70 1014.0
20260831041232 85 151 0.0 0.0 0.00 0.00 0.00 69 1014.3
20260831040727 86 131 0.0 0.0 0.00 0.00 0.00 69 1013.9
20260831040226 86 150 0.0 0.0 0.00 0.00 0.00 68 1013.9
20260831035724 86 148 0.0 0.0 0.00 0.00 0.00 68 1014.0
20260831035219 86 141 1.0 1.0 0.00 0.00 0.00 67 1013.7
20260831034718 86 152 0.0 0.0 0.00 0.00 0.00 67 1013.8
20260831034214 86 153 0.0 0.0 0.00 0.00 0.00 66 1013.7
20260831033709 86 166 1.0 1.0 0.00 0.00 0.00 66 1013.4
20260831033208 86 158 0.0 0.0 0.00 0.00 0.00 65 1013.6
20260831032703 86 150 0.0 0.0 0.00 0.00 0.00 64 1013.5
20260831032159 87 141 0.0 0.0 0.00 0.00 0.00 64 1013.4
20260831031654 87 151 0.0 0.0 0.00 0.00 0.00 63 1013.5
20260831031153 87 152 0.0 0.0 0.00 0.00 0.00 63 1013.5
20260831030652 87 157 0.0 1.0 0.00 0.00 0.00 63 1013.5
20260831030151 87 153 0.0 0.0 0.00 0.00 0.00 62 1013.3
20260831025650 87 152 0.0 0.0 0.00 0.00 0.00 62 1013.3
20260831025144 87 165 0.0 0.0 0.00 0.00 0.00 62 1013.1
20260831024641 88 135 0.0 0.0 0.00 0.00 0.00 61 1013.3
20260831024139 88 169 0.0 0.0 0.00 0.00 0.00 60 1012.9
20260831023638 88 150 0.0 1.0 0.00 0.00 0.00 60 1012.9
20260831023137 88 151 0.0 0.0 0.00 0.00 0.00 59 1012.8
20260831022633 88 162 0.0 1.0 0.00 0.00 0.00 59 1012.5
20260831022128 89 113 2.0 3.0 0.00 0.00 0.00 58 1012.6
20260831021626 89 171 0.0 0.0 0.00 0.00 0.00 58 1012.6
20260831021122 89 134 2.0 2.0 0.00 0.00 0.00 57 1012.5
20260831020618 89 154 0.0 0.0 0.00 0.00 0.00 57 1012.3
20260831020113 89 153 0.0 0.0 0.00 0.00 0.00 57 1012.3
20260831015609 89 148 0.0 0.0 0.00 0.00 0.00 56 1012.3
20260831015108 90 174 3.0 5.0 0.00 0.00 0.00 56 1012.2
20260831014603 90 152 0.0 0.0 0.00 0.00 0.00 56 1012.0
20260831014059 90 165 0.0 1.0 0.00 0.00 0.00 56 1012.0
20260831013555 90 147 0.0 0.0 0.00 0.00 0.00 55 1012.2
20260831013054 91 180 0.0 0.0 0.00 0.00 0.00 55 1012.1
20260831012554 91 169 3.0 5.0 0.00 0.00 0.00 55 1012.1
20260831012050 91 167 0.0 1.0 0.00 0.00 0.00 56 1012.1
20260831011549 91 151 0.0 0.0 0.00 0.00 0.00 55 1012.0
20260831011044 91 154 0.0 1.0 0.00 0.00 0.00 55 1012.0
20260831010540 92 124 1.0 1.0 0.00 0.00 0.00 54 1012.0
20260831010036 92 170 0.0 1.0 0.00 0.00 0.00 54 1011.9
20260831005531 92 155 0.0 0.0 0.00 0.00 0.00 53 1011.8
20260831005030 92 154 0.0 0.0 0.00 0.00 0.00 54 1012.0
20260831004526 92 146 0.0 0.0 0.00 0.00 0.00 53 1011.7
20260831004022 93 148 0.0 0.0 0.00 0.00 0.00 53 1011.9
20260831003518 93 139 0.0 0.0 0.00 0.00 0.00 52 1011.5
20260831003014 93 155 0.0 0.0 0.00 0.00 0.00 52 1011.7
20260831002512 93 160 0.0 0.0 0.00 0.00 0.00 51 1011.6
20260831002007 94 157 0.0 0.0 0.00 0.00 0.00 51 1011.6
20260831001503 94 155 1.0 2.0 0.00 0.00 0.00 51 1011.7
20260831000959 94 120 2.0 3.0 0.00 0.00 0.00 50 1011.7
20260831000455 94 136 0.0 0.0 0.00 0.00 0.00 50 1011.9
20260830235953 95 154 1.0 2.0 0.00 0.00 0.00 50 1011.6
20260830235448 95 164 0.0 0.0 0.00 0.00 0.00 50 1011.6
20260830234943 95 148 0.0 0.0 0.00 0.00 0.00 50 1011.6
20260830234438 95 159 0.0 0.0 0.00 0.00 0.00 50 1011.6
20260830233934 96 159 3.0 3.0 0.00 0.00 0.00 49 1011.9
20260830233429 96 195 0.0 0.0 0.00 0.00 0.00 49 1011.5
20260830232925 97 163 0.0 0.0 0.00 0.00 0.00 48 1011.6
20260830232421 97 151 0.0 0.0 0.00 0.00 0.00 46 1011.8
20260830231917 97 120 0.0 1.0 0.00 0.00 0.00 46 1011.7
20260830231412 96 153 0.0 0.0 0.00 0.00 0.00 47 1011.8
20260830230911 96 165 0.0 0.0 0.00 0.00 0.00 46 1011.7
20260830230407 97 168 0.0 1.0 0.00 0.00 0.00 47 1011.8
20260830225906 97 243 2.0 3.0 0.00 0.00 0.00 46 1012.0
20260830225402 98 174 3.0 3.0 0.00 0.00 0.00 45 1012.0
20260830224856 98 154 0.0 0.0 0.00 0.00 0.00 45 1011.7
20260830224355 98 143 3.0 6.0 0.00 0.00 0.00 45 1011.9
20260830223852 97 156 0.0 0.0 0.00 0.00 0.00 46 1011.8
20260830223348 96 157 2.0 3.0 0.00 0.00 0.00 46 1011.7
20260830222847 97 152 1.0 1.0 0.00 0.00 0.00 45 1011.9
20260830222343 96 307 0.0 1.0 0.00 0.00 0.00 46 1011.9
20260830221838 97 134 1.0 2.0 0.00 0.00 0.00 46 1012.0
20260830221335 98 155 1.0 1.0 0.00 0.00 0.00 46 1012.0
20260830220830 99 196 6.0 7.0 0.00 0.00 0.00 46 1011.9
20260830220330 98 162 1.0 2.0 0.00 0.00 0.00 45 1011.8
20260830215827 99 174 0.0 0.0 0.00 0.00 0.00 45 1012.1
20260830215322 100 220 2.0 3.0 0.00 0.00 0.00 44 1011.8
20260830214818 99 247 2.0 3.0 0.00 0.00 0.00 45 1012.0
20260830214312 100 167 3.0 5.0 0.00 0.00 0.00 45 1012.2
20260830213812 100 173 1.0 2.0 0.00 0.00 0.00 44 1012.0
20260830213307 100 131 1.0 2.0 0.00 0.00 0.00 43 1012.2
20260830212803 100 162 1.0 2.0 0.00 0.00 0.00 44 1012.0
20260830212259 99 228 2.0 2.0 0.00 0.00 0.00 44 1012.5
20260830211757 100 176 2.0 2.0 0.00 0.00 0.00 44 1012.2
20260830211257 101 190 1.0 2.0 0.00 0.00 0.00 43 1012.3
20260830210753 99 255 2.0 2.0 0.00 0.00 0.00 44 1012.5
20260830210252 100 161 0.0 0.0 0.00 0.00 0.00 43 1012.8
20260830205749 100 160 2.0 3.0 0.00 0.00 0.00 44 1012.8
20260830205244 100 129 2.0 2.0 0.00 0.00 0.00 43 1012.6
20260830204740 100 137 1.0 2.0 0.00 0.00 0.00 45 1012.9
20260830204238 100 150 2.0 3.0 0.00 0.00 0.00 45 1012.9
20260830203735 100 188 3.0 6.0 0.00 0.00 0.00 44 1012.8
20260830203230 101 203 1.0 2.0 0.00 0.00 0.00 43 1013.0
20260830202730 100 176 1.0 1.0 0.00 0.00 0.00 44 1013.1
20260830202225 100 149 0.0 1.0 0.00 0.00 0.00 44 1013.1
20260830201724 99 157 3.0 3.0 0.00 0.00 0.00 47 1013.4
20260830201220 99 266 2.0 3.0 0.00 0.00 0.00 46 1013.2
20260830200715 98 214 2.0 3.0 0.00 0.00 0.00 47 1013.3
20260830200214 96 156 0.0 0.0 0.00 0.00 0.00 49 1013.5
20260830195710 98 210 3.0 3.0 0.00 0.00 0.00 49 1013.5
20260830195208 99 116 0.0 1.0 0.00 0.00 0.00 46 1013.5
20260830194707 99 201 1.0 2.0 0.00 0.00 0.00 45 1013.6
20260830194202 98 158 0.0 1.0 0.00 0.00 0.00 48 1013.9
20260830193656 99 187 1.0 1.0 0.00 0.00 0.00 47 1014.0
20260830193156 98 150 0.0 1.0 0.00 0.00 0.00 50 1014.2
20260830192652 99 154 1.0 2.0 0.00 0.00 0.00 48 1014.1
20260830192147 98 184 0.0 1.0 0.00 0.00 0.00 51 1014.2
20260830191643 98 225 1.0 2.0 0.00 0.00 0.00 50 1014.2
20260830191137 95 158 0.0 1.0 0.00 0.00 0.00 54 1014.3
20260830190633 98 163 1.0 2.0 0.00 0.00 0.00 51 1014.6
20260830190127 98 149 0.0 0.0 0.00 0.00 0.00 51 1014.3
20260830185621 96 233 2.0 3.0 0.00 0.00 0.00 52 1014.7
20260830185117 96 153 0.0 0.0 0.00 0.00 0.00 53 1014.8
20260830184615 95 180 1.0 2.0 0.00 0.00 0.00 54 1014.6
20260830184115 95 141 1.0 2.0 0.00 0.00 0.00 55 1014.8
20260830183610 96 177 0.0 1.0 0.00 0.00 0.00 54 1015.1
20260830183106 95 179 3.0 3.0 0.00 0.00 0.00 54 1015.1
20260830182601 93 157 1.0 2.0 0.00 0.00 0.00 57 1014.9
20260830182058 96 169 3.0 5.0 0.00 0.00 0.00 55 1015.2
20260830181554 95 297 3.0 3.0 0.00 0.00 0.00 56 1015.4
20260830181053 95 158 2.0 2.0 0.00 0.00 0.00 56 1015.3
20260830180552 92 173 2.0 2.0 0.00 0.00 0.00 60 1015.4
20260830180052 90 177 5.0 5.0 0.00 0.00 0.00 62 1015.4
20260830175551 91 115 3.0 3.0 0.00 0.00 0.00 63 1015.6
20260830175046 92 135 4.0 6.0 0.00 0.00 0.00 61 1015.8
20260830174542 94 168 4.0 5.0 0.00 0.00 0.00 60 1015.9
20260830174037 92 159 0.0 1.0 0.00 0.00 0.00 61 1016.1
20260830173532 94 260 3.0 3.0 0.00 0.00 0.00 58 1015.9
20260830173027 92 160 0.0 0.0 0.00 0.00 0.00 62 1016.2
20260830172524 96 217 5.0 7.0 0.00 0.00 0.00 57 1016.2
20260830172020 95 164 2.0 3.0 0.00 0.00 0.00 58 1016.2
20260830171520 94 157 1.0 2.0 0.00 0.00 0.00 60 1015.9
20260830171020 94 144 3.0 3.0 0.00 0.00 0.00 60 1016.2
20260830170515 97 145 0.0 0.0 0.00 0.00 0.00 56 1016.2
20260830170014 93 52 2.0 2.0 0.00 0.00 0.00 61 1016.4
20260830165509 93 198 1.0 3.0 0.00 0.00 0.00 61 1016.4
20260830165005 94 302 4.0 5.0 0.00 0.00 0.00 62 1016.3
20260830164501 94 302 2.0 3.0 0.00 0.00 0.00 62 1016.4
20260830163957 94 209 3.0 3.0 0.00 0.00 0.00 64 1016.5